Location: Betra
(48.4113°N, 8.6634°E)
Time: 23:02:10
(UTC+00:00)

Aureole 3 - Pass Details

Date: 11 August 2024
Orbit: 375 x 1118 km, 82.5° (Epoch: 10 September)

Event Time Altitude Azimuth Distance (km) Brightness Sun altitude
Rises 01:31:51 0° 346° (NNW) 2,646 7.5 -20.9°
Reaches altitude 10° 01:34:11 10° 340° (NNW) 1,651 6.2 -20.7°
Enters shadow 01:36:52 39° 305° (NW) 671 3.7 -20.5°
